Location: Dugenta
(41.1333°N, 14.4500°E)
Time: 13:37:16
(UTC+00:00)

Okean 1 - Pass Details

Date: 03 March 2021
Orbit: 539 x 553 km, 82.5° (Epoch: 14 April)

Event Time Altitude Azimuth Distance (km) Brightness Sun altitude
Rises 17:54:50 0° 351° (N) 2,730 7.0 -12.0°
Reaches altitude 10° 17:57:01 10° 351° (N) 1,834 6.1 -12.4°
Maximum altitude 18:01:03 83° 264° (W) 561 3.4 -13.1°
Drops below altitude 10° 18:05:04 10° 176° (S) 1,825 5.9 -13.9°
Sets 18:07:13 0° 176° (S) 2,716 6.8 -14.3°
